Location: Colconda
(10.2500°N, 61.4333°W)
Time: 08:48:01
(UTC+00:00)

Daily predictions for brighter satellites

Satellite Brightness Start Highest point End
(mag) Time Altitude Azimuth Time Altitude Azimuth Time Altitude Azimuth
Cosmos 1812 Rocket 3.5 22:44:32 10° N 22:48:50 67° E 22:53:06 10° SSE
Lacrosse 4 Rocket 1.3 22:47:07 10° SSW 22:51:12 85° ESE 22:55:23 10° NNE
Sylda 4400 3.6 22:47:04 10° WSW 22:51:27 39° S 22:53:53 10° ESE
Cosmos 1190 Rocket 4.0 22:46:49 10° S 22:52:06 77° ESE 22:57:22 10° NNE
ATLAS 2AS CENTAUR R/B 4.0 22:47:05 10° N 22:52:48 23° ENE 22:58:07 10° ESE
Cosmos 1766 3.4 22:50:38 10° N 22:54:32 81° W 22:58:29 10° S
SWIFT 4.1 22:51:02 10° NW 22:54:36 25° N 22:58:10 10° ENE
Cosmos 676 Rocket 4.4 22:51:07 10° S 22:56:05 42° E 23:00:59 10° NNE
Cosmos 2360 Rocket 2.4 22:51:01 10° N 22:56:27 51° ENE 23:01:51 10° SSE
SL-16 R/B 3.3 22:51:25 10° NNW 22:56:47 45° WSW 23:02:09 10° S
COSMOS 2428 4.2 22:53:04 10° NNE 22:56:54 18° ENE 23:00:42 10° ESE
Cosmos 1953 Rocket 3.6 22:55:19 10° S 22:59:44 87° W 23:04:06 10° N
ASTEX 1 3.8 23:06:25 10° SSE 23:11:01 43° E 23:15:36 10° NNE
Cosmos 1707 2.7 23:09:31 10° S 23:13:21 67° E 23:17:12 10° N
FENGYUN 3A 3.6 23:10:14 10° SSE 23:15:36 74° ENE 23:20:58 10° N
Cosmos 972 Rocket 4.4 23:11:00 10° NNW 23:16:18 76° W 23:22:15 10° S
Cosmos 1953 2.4 23:12:45 10° N 23:16:39 53° E 23:20:32 10° SSE
Cosmos 2219 Rocket 3.8 23:17:26 10° NNE 23:20:48 16° ENE 23:22:36 14° E
Cosmos 2333 Rocket 4.0 23:20:12 10° NE 23:22:26 12° ENE 23:23:41 12° E
Cosmos 389 Rocket 3.3 23:19:47 10° NNW 23:23:15 52° W 23:26:47 10° S
Spelda 2.8 23:25:12 10° WSW 23:27:37 34° S 23:29:12 23° SE
FengYun 1-2 T 4.2 23:22:17 10° SSE 23:27:44 69° ENE 23:33:10 10° N
H-2A R/B 2.6 23:26:01 14° SSE 23:29:07 63° ENE 23:32:49 10° N
Cosmos 2082 4.0 23:24:56 10° SSW 23:30:30 69° WNW 23:36:04 10° N
Cosmos 1140 Rocket 3.4 23:27:20 10° S 23:32:29 68° ESE 23:37:37 10° NNE
H-10 deb 1.9 23:30:31 10° WSW 23:32:58 38° S 23:33:44 30° SE
USA 215 4.4 23:27:30 10° S 23:33:25 37° SW 23:39:21 10° WNW
GPS 2-12 Rocket1 3.6 23:29:15 10° SW 23:33:49 42° SSE 23:36:05 25° ESE
Cosmos 2297 Rocket 2.7 23:31:38 10° SSW 23:37:12 63° WNW 23:42:46 10° N
USA 186 3.9 23:41:32 11° NE 23:41:32 11° NE 23:41:43 10° NNE
GEOS 3 Rocket 3.5 23:37:21 21° SE 23:40:43 75° ENE 23:45:49 10° NNW
ARIANE 5 R/B 4.0 23:21:36 10° W 23:41:52 28° SSW 23:45:39 17° SSE
Resurs 01 Rocket 1.7 23:41:54 28° SE 23:44:00 54° ENE 23:48:16 10° N
Meteor 1-29 4.4 23:42:47 10° NE 23:44:34 23° ENE 23:44:34 23° ENE
Cosmos 1867 3.5 23:40:52 10° SSW 23:46:13 65° ESE 23:51:34 10° NNE
Cosmos 2322 4.5 23:45:38 10° NNW 23:51:05 50° WSW 23:56:31 10° S
Cosmos 1992 Rocket 3.9 23:47:07 10° N 23:52:17 74° ENE 23:54:48 31° SSE
SJ-6B 4.3 23:48:45 10° SSW 23:52:22 35° W 23:55:55 10° NW
Resurs 1-3 3.5 23:53:38 39° SSE 23:55:08 68° ENE 23:59:29 10° N
